Погода в Спасске

Россия / Пензенская область     53°55′35″N   43°11′15″E
темп.,
°C
ветер,
м/с
пор.,
м/с
влажн.,
%
обл.,
%
осадки,
мм/ч
давл.,
гПа
погр.,
м
9 мая, вс
вс900:00+11ююв61585100 0.8 1007568
03:00+11ююв5128998 1.7 1007384
06:00+12ю51194100 0.0 1006448
09:00+12ююв3795100 1.5 1006380
12:00+13ю5993100 3.7 1006703
15:00+9з5996100 6.6 1009376
18:00+8юз3594100 4.1 1012258
21:00+7зюз3694100 4.3 1014323
10 мая, пн
пн1000:00+6зсз4697100 0.0 1016329
03:00+7с5997100 0.1 1017432
06:00+6с61196100 0.6 1019483
09:00+6с61296100 2.9 1021527
12:00+6с71394100 1.4 1023466
15:00+8ссв81391100 1.9 1024565
18:00+9ссв81491100 0.0 1024489
21:00+7ссв71494100 0.0 1024415
11 мая, вт
вт1100:00+8св81693100 0.0 1024395
03:00+8св8169399 0.0 1024366
06:00+8св81691100 0.0 1024395
09:00+13всв81282100 0.0 1025461
12:00+18всв71071100 0.0 1025735
15:00+20всв710675 0.1 10251207
18:00+18в7127319 3.1 1025400
21:00+14всв61491100 4.2 1025365
12 мая, ср
ср1200:00+11юз359093 0.3 1026136
03:00+12ссв3390100 0.6 102561
06:00+13всв41194100 0.0 1024296
09:00+13всв51087100 0.1 1024245
12:00+17в6137799 0.0 1024701
15:00+19в6116787 0.0 1024874
18:00+17вюв4778100 0.3 1023148
21:00+15вюв4138098 0.3 1023264
13 мая, чт
чт1300:00+14вюв51179100 0.0 1023259
03:00+13в51278100 0.0 1023283
06:00+13в51279100 0.0 1022305
09:00+16вюв71369100 0.0 1022592
12:00+16вюв61275100 0.1 1021750
15:00+15юв61388100 0.2 1021693
18:00+18юв48793 0.3 1020575
21:00+14юв38920 0.5 1020138